[[{"header":{"parameterUnit":"m.s-1","parameterCategory":1,"la1":30.2991,"la2":30.254,"lo1":-89.0895,"lo2":-89.0444,"dy":0.0017,"dx":0.0017,"nx":28,"ny":28,"refTime":"2023-09-26T09:00:00:Z","depth":0,"parameterNumber":2,"parameterNumberName":"U-component_of_WINDS"},"data":[0,0,0,0,0,0,0,0,0,0,0,0,0,0,0,0,0,0,0,0,0,0,0,0,0,0,0,0,0,0,0,0,0,0,0,0,0,0,0,0,0,0,0,0,0,0,0,0,0,0,0,0,0,0,0,0,0,0,-4.7191,-4.7191,0,-4.714,-4.7139,-4.7138,-4.6986,-4.6983,-4.6979,-4.6976,-4.6927,-4.6929,-4.6931,0,0,0,0,0,0,0,0,0,0,0,0,0,-4.7162,-4.7163,-4.7191,-4.7191,-4.719,-4.714,-4.7139,-4.7138,-4.6986,-4.6982,-4.6978,-4.6974,-4.6926,-4.6929,-4.6931,0,0,0,0,0,0,0,0,0,0,0,0,0,-4.7149,-4.7164,-4.7191,-4.7108,-4.71,-4.714,-4.7139,-4.7138,-4.6987,-4.6982,-4.6977,-4.6973,-4.6926,-4.6928,-4.6931,-4.7049,0,0,-4.6939,-4.6941,0,0,0,0,0,0,0,0,-4.715,-4.715,-4.7121,-4.7114,-4.7105,-4.7064,-4.7111,-4.7108,-4.6989,-4.703,-4.6976,-4.697,-4.6977,-4.6975,-4.6977,-4.7046,-4.7044,-4.694,-4.6941,-4.6942,-4.6943,0,0,0,0,0,0,0,-4.7151,-4.7152,-4.7171,-4.7121,-4.7111,-4.7074,-4.7067,-4.7109,-4.7033,-4.7026,-4.7015,-4.7011,-4.6972,-4.6974,-4.6974,-4.7043,-4.694,-4.6942,-4.6944,-4.6945,-4.7209,-4.7214,0,0,0,0,0,0,-4.7164,-4.7154,-4.7172,-4.7169,-4.7115,-4.7079,-4.7071,-4.7082,-4.7032,-4.7019,-4.7015,-4.7004,-4.6972,-4.6971,-4.6972,-4.7108,-4.6942,-4.6945,-4.6947,-4.7204,-4.7211,-4.7216,0,0,0,0,0,0,-4.7164,-4.7167,-4.7174,-4.7158,-4.7157,-4.7085,-4.7099,-4.7084,-4.7086,-4.7023,-4.7009,-4.7032,-4.6968,-4.6968,-4.7031,-4.7104,-4.6946,-4.6949,-4.7198,-4.7206,-4.7213,-4.738,0,0,0,0,0,0,-4.7163,-4.7168,-4.721,-4.716,-4.7158,-4.7234,-4.7103,-4.7087,-4.7091,-4.7076,-4.7035,-4.7024,-4.6964,-4.7028,-4.7034,-4.7105,-4.6951,-4.7191,-4.7201,-4.7211,-4.7368,-4.7393,-4.7414,0,0,0,0,0,-4.7163,-4.726,-4.7213,-4.7217,-4.721,-4.7238,-4.7237,-4.7165,-4.7098,-4.7141,-4.7101,-4.7025,-4.7095,-4.7035,-4.7041,-4.7114,-4.7186,-4.7198,-4.721,-4.7357,-4.7388,-4.7414,0,0,0,0,0,0,-4.7321,-4.7252,-4.7199,-4.7283,-4.7268,-4.7212,-4.7264,-4.72,-4.7204,-4.719,-4.7102,-4.7094,-4.717,-4.7148,-4.7083,-4.7226,-4.7128,-4.7142,-4.7238,-4.7267,-4.729,-4.7294,-4.6953,0,0,0,0,0,-4.7365,-4.7393,-4.7331,-4.7411,-4.7405,-4.7337,-4.7346,-4.7293,-4.7274,-4.7267,-4.7231,-4.7217,-4.7235,-4.7249,-4.7263,-4.7363,-4.7354,-4.7417,-4.744,-4.7459,-4.7473,-4.7527,-4.7555,-4.7256,-4.7256,-4.7256,0,0,-4.7458,-4.7423,-4.7446,-4.7442,-4.7423,-4.7455,-4.7332,-4.7371,-4.7394,-4.7273,-4.733,-4.7304,-4.7282,-4.7365,-4.7399,-4.7349,-4.7553,-4.7475,-4.7491,-4.7494,-4.7542,-4.7571,-4.7596,-4.7264,-4.7263,-4.7262,0,0,-4.7643,-4.7619,-4.7683,-4.7667,-4.7641,-4.7595,-4.7611,-4.7566,-4.7543,-4.7599,-4.7509,-4.7536,-4.757,-4.7559,-4.7557,-4.774,-4.7672,-4.7747,-4.7869,-4.7923,-4.7947,-4.7967,-4.8034,-4.8059,-4.776,-4.7761,-4.7761,0,-4.7761,-4.7804,-4.7725,-4.7769,-4.7771,-4.7662,-4.7728,-4.7717,-4.7697,-4.7702,-4.7645,-4.7686,-4.7663,-4.7743,-4.7788,-4.779,-4.7807,-4.7752,-4.7949,-4.7969,-4.7987,-4.805,-4.8076,-4.777,-4.7769,-4.7768,-4.7767,0,-4.7953,-4.7984,-4.804,-4.8023,-4.8031,-4.8086,-4.8017,-4.8034,-4.798,-4.7941,-4.8001,-4.797,-4.7976,-4.7991,-4.7939,-4.8064,-4.8034,-4.7965,-4.7864,-4.8026,-4.8084,-4.8108,-4.7784,-4.7781,-4.7778,-4.7775,0,0,-4.8236,-4.8175,-4.8197,-4.8189,-4.8152,-4.8176,-4.8227,-4.8233,-4.8251,-4.8241,-4.8283,-4.8315,-4.8251,-4.825,-4.8195,-4.8242,-4.8392,-4.8167,-4.8165,-4.8212,-4.8531,-4.8585,-4.8614,-4.8346,-4.835,-4.8353,-4.8534,0,-4.8412,-4.8495,-4.8426,-4.8523,-4.8552,-4.8449,-4.8494,-4.8478,-4.8443,-4.8464,-4.8425,-4.845,-4.8363,-4.8362,-4.8403,-4.8365,-4.8455,-4.8351,-4.8386,-4.8389,-4.8397,-4.8644,-4.87,-4.8872,-4.8556,-4.8559,-4.8562,0,-4.8629,-4.8629,-4.8729,-4.8688,-4.8698,-4.8739,-4.874,-4.876,-4.8741,-4.8712,-4.8712,-4.8645,-4.8695,-4.8596,-4.8664,-4.8594,-4.8605,-4.8588,-4.8593,-4.8595,-4.8486,-4.8655,-4.8925,-4.8952,-4.8597,-4.8594,-4.8591,0,-4.8829,-4.8854,-4.8917,-4.8913,-4.8866,-4.8898,-4.888,-4.8855,-4.8864,-4.8864,-4.8869,-4.8876,-4.8881,-4.8889,-4.8827,-4.876,-4.8904,-4.8799,-4.8883,-4.8885,-4.8919,-4.8918,-4.9197,-4.8924,-4.8923,-4.8923,-4.8922,0,-4.9034,-4.91,-4.9006,-4.9045,-4.9117,-4.9037,-4.911,-4.9081,-4.9061,-4.9094,-4.9005,-4.9039,-4.8954,-4.8979,-4.8931,-4.8996,-4.8998,-4.8978,-4.8965,-4.8987,-4.899,-4.8994,-4.8981,-4.8929,-4.8928,-4.8927,-4.8925,0,-4.9269,-4.9209,-4.9271,-4.9222,-4.9211,-4.9266,-4.9224,-4.926,-4.9219,-4.9262,-4.9268,-4.9205,-4.923,-4.9168,-4.9185,-4.9152,-4.9246,-4.9213,-4.9253,-4.9244,-4.9332,-4.9326,-4.9625,-4.9661,-4.9363,-4.9366,-4.9368,0,-4.9405,-4.9453,-4.9409,-4.9425,-4.9412,-4.9438,-4.9446,-4.937,-4.9382,-4.9364,-4.9403,-4.942,-4.943,-4.9476,-4.9432,-4.9445,-4.9412,-4.9516,-4.9414,-4.9435,-4.9417,-4.9415,-4.9421,-4.9538,-4.9542,-4.9545,-4.9547,0,-4.9653,-4.9621,-4.9636,-4.9641,-4.9653,-4.9654,-4.9648,-4.9666,-4.9585,-4.9604,-4.9628,-4.9637,-4.9653,-4.9673,-4.9676,-4.9659,-4.9592,-4.958,-4.96,-4.9624,-4.9647,-4.9638,-4.9313,-4.9574,-4.9571,-4.9569,-4.9568,-4.9567,-4.9844,-4.9883,-4.9859,-4.9878,-4.9866,-4.9863,-4.9895,-4.9858,-4.9876,-4.9884,-4.9838,-4.9873,-4.9854,-4.985,-4.9841,-4.9868,-4.9821,-4.985,-4.9858,-4.9867,-4.9883,-4.9641,-4.9868,-4.9867,-4.9867,-4.9866,-4.9865,0,-5.009,-5.0069,-5.0088,-5.0083,-5.01,-5.0032,-5.0023,-5.0042,-5.0074,-5.0061,-5.0073,-5.0102,-5.0121,-5.0079,-5.0092,-5.0123,-5.0092,-5.0129,-5.0127,-5.0125,-4.9923,-4.9905,-5.0154,-5.0154,-5.0153,-5.0153,-5.0153,-5.0153,-5.022,-5.0282,-5.0248,-5.0305,-5.0283,-5.0317,-5.0317,-5.0315,-5.0305,-5.0341,-5.0356,-5.0329,-5.0305,-5.0316,-5.0331,-5.0318,-5.0328,-5.0377,-5.0354,-5.0166,-5.0138,-5.0112,-5.0094,-5.0379,-5.0379,-5.0553,-5.0554,-5.0556]},{"header":{"parameterUnit":"m.s-1","parameterCategory":1,"la1":30.2991,"la2":30.254,"lo1":-89.0895,"lo2":-89.0444,"dy":0.0017,"dx":0.0017,"nx":28,"ny":28,"refTime":"2023-09-26T09:00:00:Z","depth":0,"parameterNumber":3,"parameterNumberName":"V-component_of_WINDS"},"data":[0,0,0,0,0,0,0,0,0,0,0,0,0,0,0,0,0,0,0,0,0,0,0,0,0,0,0,0,0,0,0,0,0,0,0,0,0,0,0,0,0,0,0,0,0,0,0,0,0,0,0,0,0,0,0,0,0,0,-1.0707,-1.0707,0,-1.0753,-1.0753,-1.0754,-1.0747,-1.0747,-1.0746,-1.0745,-1.0791,-1.0793,-1.0795,0,0,0,0,0,0,0,0,0,0,0,0,0,-1.0611,-1.0613,-1.0707,-1.0707,-1.0708,-1.0753,-1.0753,-1.0754,-1.0747,-1.0747,-1.0746,-1.0745,-1.0791,-1.0793,-1.0795,0,0,0,0,0,0,0,0,0,0,0,0,0,-1.0654,-1.0613,-1.0707,-1.071,-1.0711,-1.0753,-1.0753,-1.0754,-1.0748,-1.0746,-1.0745,-1.0744,-1.079,-1.0793,-1.0796,-1.0837,0,0,-1.0805,-1.0806,0,0,0,0,0,0,0,0,-1.0652,-1.0658,-1.0709,-1.071,-1.0711,-1.0743,-1.0737,-1.0782,-1.0748,-1.0734,-1.0745,-1.0744,-1.0776,-1.078,-1.0791,-1.0839,-1.0841,-1.0805,-1.0807,-1.0808,-1.0809,0,0,0,0,0,0,0,-1.0649,-1.0656,-1.0725,-1.071,-1.0711,-1.0709,-1.0714,-1.0745,-1.0761,-1.0735,-1.0734,-1.074,-1.0776,-1.0789,-1.0792,-1.0842,-1.0805,-1.0807,-1.0809,-1.081,-1.0926,-1.0927,0,0,0,0,0,0,-1.0645,-1.0653,-1.0723,-1.0726,-1.0678,-1.0711,-1.0717,-1.0734,-1.076,-1.0763,-1.0741,-1.074,-1.0784,-1.0789,-1.0794,-1.0845,-1.0808,-1.0811,-1.0812,-1.0924,-1.0926,-1.0927,0,0,0,0,0,0,-1.0643,-1.0652,-1.0722,-1.069,-1.0699,-1.0714,-1.0734,-1.0735,-1.0748,-1.0765,-1.0768,-1.0751,-1.0783,-1.079,-1.0826,-1.0846,-1.0812,-1.0815,-1.0923,-1.0925,-1.0927,-1.0947,0,0,0,0,0,0,-1.0641,-1.0651,-1.0667,-1.069,-1.07,-1.0754,-1.0735,-1.0737,-1.0753,-1.0751,-1.0775,-1.0778,-1.0783,-1.0822,-1.0829,-1.085,-1.0817,-1.0921,-1.0924,-1.0926,-1.0944,-1.0949,-1.0953,0,0,0,0,0,-1.0637,-1.0671,-1.0668,-1.0677,-1.0721,-1.0755,-1.0761,-1.0767,-1.0754,-1.0771,-1.0782,-1.0777,-1.0842,-1.0826,-1.0834,-1.0856,-1.092,-1.0923,-1.0926,-1.0942,-1.0948,-1.0953,0,0,0,0,0,0,-1.0649,-1.0674,-1.0671,-1.0713,-1.0732,-1.0754,-1.0775,-1.0772,-1.0795,-1.0793,-1.0798,-1.0804,-1.0841,-1.0851,-1.0833,-1.0897,-1.0879,-1.0884,-1.0889,-1.0895,-1.0899,-1.0897,-1.0819,0,0,0,0,0,-1.0657,-1.0683,-1.0703,-1.0738,-1.0747,-1.0759,-1.0774,-1.0777,-1.0797,-1.0805,-1.0818,-1.0837,-1.0862,-1.0879,-1.0902,-1.0945,-1.095,-1.0963,-1.0968,-1.0971,-1.0976,-1.1,-1.1006,-1.0937,-1.0937,-1.0937,0,0,-1.0673,-1.069,-1.0706,-1.0741,-1.0756,-1.0782,-1.0766,-1.0795,-1.0815,-1.0809,-1.0845,-1.0855,-1.0877,-1.0917,-1.0935,-1.0927,-1.0996,-1.0975,-1.0978,-1.0981,-1.1004,-1.101,-1.1016,-1.0939,-1.0939,-1.0938,0,0,-1.0717,-1.0731,-1.0763,-1.0778,-1.0801,-1.0808,-1.0816,-1.0838,-1.0845,-1.0881,-1.0877,-1.09,-1.0942,-1.0958,-1.0972,-1.102,-1.1016,-1.1027,-1.1051,-1.1074,-1.1079,-1.1084,-1.1103,-1.1109,-1.1031,-1.1031,-1.1031,0,-1.0734,-1.0774,-1.0779,-1.0808,-1.0824,-1.0819,-1.0851,-1.0866,-1.0895,-1.0906,-1.0896,-1.0949,-1.0963,-1.1007,-1.1019,-1.1029,-1.1038,-1.1025,-1.1078,-1.1083,-1.1088,-1.1105,-1.1112,-1.1032,-1.1032,-1.1032,-1.1032,0,-1.0795,-1.0823,-1.0845,-1.0875,-1.0892,-1.0922,-1.0931,-1.0948,-1.0949,-1.0957,-1.0994,-1.101,-1.1038,-1.1048,-1.1048,-1.1092,-1.1086,-1.1077,-1.106,-1.1096,-1.1112,-1.1119,-1.1034,-1.1034,-1.1033,-1.1033,0,0,-1.085,-1.088,-1.0888,-1.0902,-1.0926,-1.0948,-1.0977,-1.1004,-1.1019,-1.1039,-1.1064,-1.11,-1.1092,-1.1107,-1.1109,-1.1129,-1.1167,-1.1118,-1.1118,-1.1128,-1.1217,-1.1225,-1.1233,-1.1164,-1.1165,-1.1166,-1.1216,0,-1.0897,-1.0951,-1.0955,-1.1003,-1.1029,-1.1024,-1.105,-1.1068,-1.1076,-1.1099,-1.1107,-1.1133,-1.112,-1.1129,-1.1148,-1.1159,-1.1186,-1.1155,-1.1189,-1.119,-1.1186,-1.1242,-1.1251,-1.1297,-1.1222,-1.1223,-1.1224,0,-1.096,-1.0982,-1.1033,-1.1054,-1.1065,-1.1088,-1.1113,-1.1135,-1.1154,-1.1159,-1.1175,-1.1174,-1.1204,-1.1184,-1.1226,-1.1205,-1.1219,-1.1226,-1.1227,-1.1233,-1.1211,-1.125,-1.1312,-1.1319,-1.1234,-1.1233,-1.1233,0,-1.0996,-1.1039,-1.1075,-1.1086,-1.1111,-1.1128,-1.1138,-1.1157,-1.1172,-1.1194,-1.1204,-1.1228,-1.1242,-1.126,-1.1266,-1.1251,-1.1308,-1.1288,-1.1313,-1.1313,-1.1327,-1.1327,-1.1394,-1.1333,-1.1332,-1.1332,-1.1332,0,-1.105,-1.1082,-1.1092,-1.1115,-1.115,-1.1154,-1.1188,-1.1198,-1.1214,-1.1238,-1.1234,-1.1257,-1.1262,-1.1285,-1.1289,-1.1323,-1.1329,-1.1334,-1.1335,-1.1336,-1.1335,-1.1346,-1.1344,-1.1334,-1.1334,-1.1333,-1.1333,0,-1.1098,-1.1106,-1.1146,-1.1166,-1.1171,-1.1197,-1.1213,-1.1235,-1.1242,-1.1272,-1.1279,-1.129,-1.1318,-1.1324,-1.1356,-1.1359,-1.14,-1.1397,-1.1394,-1.1395,-1.142,-1.1419,-1.1498,-1.151,-1.1439,-1.144,-1.144,0,-1.1133,-1.1158,-1.118,-1.1196,-1.1208,-1.1234,-1.125,-1.1254,-1.1271,-1.1295,-1.1313,-1.134,-1.1362,-1.1405,-1.1416,-1.144,-1.1439,-1.1465,-1.1443,-1.1443,-1.1442,-1.1441,-1.1444,-1.147,-1.1471,-1.1472,-1.1472,0,-1.1195,-1.1197,-1.1222,-1.1247,-1.1267,-1.1286,-1.1305,-1.1318,-1.1325,-1.1344,-1.1372,-1.1389,-1.1422,-1.1449,-1.1473,-1.1483,-1.1479,-1.1479,-1.1486,-1.1488,-1.1486,-1.1489,-1.1408,-1.1477,-1.1477,-1.1477,-1.1476,-1.1476,-1.1239,-1.1261,-1.128,-1.1307,-1.1321,-1.1339,-1.1361,-1.137,-1.1394,-1.1422,-1.1422,-1.1452,-1.147,-1.1503,-1.1514,-1.1538,-1.153,-1.154,-1.1543,-1.1547,-1.155,-1.148,-1.1542,-1.1542,-1.1542,-1.1542,-1.1542,0,-1.1302,-1.1314,-1.1338,-1.1365,-1.1386,-1.138,-1.14,-1.1418,-1.1446,-1.1463,-1.1484,-1.1516,-1.1542,-1.1554,-1.1579,-1.1596,-1.1595,-1.1603,-1.1603,-1.1605,-1.1555,-1.1547,-1.1603,-1.1603,-1.1603,-1.1603,-1.1603,-1.1603,-1.1337,-1.1374,-1.1379,-1.1423,-1.1434,-1.1465,-1.1477,-1.1494,-1.1507,-1.1544,-1.1565,-1.1573,-1.1588,-1.1614,-1.1637,-1.164,-1.165,-1.166,-1.1662,-1.1615,-1.1609,-1.1603,-1.1595,-1.1661,-1.1662,-1.1711,-1.1711,-1.1712]}]]